Location: Bittelbronn
(48.4454°N, 8.5870°E)
Time: 16:29:06
(UTC+00:00)

Meteor 1-21 - Pass Details

Date: 23 May 2024
Orbit: 844 x 886 km, 81.2° (Epoch: 16 June)

Event Time Altitude Azimuth Distance (km) Brightness Sun altitude
Exits shadow 00:04:42 36° 165° (SSE) 1,339 4.8 -20.3°
Maximum altitude 00:07:00 65° 97° (E) 948 4.4 -20.2°
Drops below altitude 10° 00:12:41 10° 17° (NNE) 2,532 7.9 -20.0°
Sets 00:15:09 0° 14° (NNE) 3,481 9.0 -19.9°
